Flag for U.S.A. Weather past 2 weeks in Lowell, Massachusetts, U.S.A.

Now
24 °F

Overcast.


Feels Like: 14 °F
Forecast: 16 / 30 °F
Wind: 10 mph from North

Location: Hanscom Field

Current Time: Mar 5, 2015 at 3:56:44 PM

Latest Report: Mar 5, 2015 at 2:56 PM


Visibility: 10 mi

Pressure: 30.16 "Hg

Humidity: 42%

Dew point: 4 °F

Location of LowellLocation

Historic Weather in Lowell — Graph

°F

Lowell temperature yesterday

Maximum temperature yesterday: 42 °F (at 12:56 PM)
Minimum temperature yesterday: 32 °F (at 12:56 AM)
Average temperature yesterday: 38 °F

Past Weeks' High & Low Weather Summary

 TemperatureHumidityPressure
High42 °F (Mar 4, 12:56 PM)100% (Feb 19, 5:56 AM)30.79 "Hg (Feb 19, 5:56 AM)
Low-13 °F (Feb 24, 5:56 AM)25% (Feb 27, 2:56 PM)29.53 "Hg (Feb 19, 1:04 PM)
Average20 °F62%30.15 "Hg
* Reported Feb 18 1:56 PM — Mar 5 1:56 PM, Lowell, Weather by CustomWeather, © 2015

Note: Actual official high and low records may vary slightly from our data, if they occured in-between our weather recording intervals... More about our weather records

Advertising

Lowell weather history for previous 24 hours

 ConditionsComfort  
Time TempWeatherWind HumidityBarometerVisibility
1:56 PM
Thu, Mar 5
25 °FOvercast.16 mph44%30.13 "Hg10 mi
12:56 PM27 °FOvercast.13 mph35%30.12 "Hg10 mi
11:56 AM28 °FOvercast.15 mph34%30.09 "Hg10 mi
10:56 AM28 °FOvercast.13 mph37%30.10 "Hg10 mi
9:56 AM29 °FOvercast.17 mph34%30.08 "Hg10 mi
8:56 AM30 °FOvercast.16 mph38%30.07 "Hg10 mi
7:56 AM31 °FMostly cloudy.13 mph43%30.04 "Hg10 mi
6:56 AM31 °FLight snow. Overcast.17 mph64%30.03 "Hg4 mi
5:56 AM34 °FOvercast.7 mph54%29.99 "Hg10 mi
4:56 AM35 °FOvercast.9 mph52%29.95 "Hg10 mi
3:56 AM36 °FOvercast.10 mph54%29.91 "Hg10 mi
2:56 AM36 °FOvercast.10 mph59%29.89 "Hg10 mi
1:56 AM37 °FOvercast.12 mph60%29.88 "Hg10 mi
12:56 AM37 °FOvercast.7 mph67%29.89 "Hg10 mi
11:56 PM
Wed, Mar 4
37 °FMostly cloudy.5 mph70%29.90 "Hg10 mi
10:56 PM37 °FPassing clouds.3 mph70%29.88 "Hg10 mi
9:56 PM37 °FClear.No wind70%29.87 "Hg10 mi
8:56 PM37 °FPassing clouds.3 mph70%29.87 "Hg10 mi
7:56 PM37 °FClear.6 mph70%29.83 "Hg10 mi
6:56 PM39 °FClear.6 mph62%29.86 "Hg10 mi
5:56 PM39 °FClear.6 mph65%29.83 "Hg10 mi
4:56 PM40 °FPartly sunny.7 mph63%29.82 "Hg10 mi
3:56 PM41 °FOvercast.10 mph58%29.81 "Hg10 mi
Weather by CustomWeather, © 2015

See weather overviewHow to use our weather pages